"TOA5","AWS1","CR1000","7964","CR1000.Std.14","CPU:AWS1_114.CR1","64363","TBL110"
"TIMESTAMP","RECORD","Wind_spd_WVc(1)","Wind_spd_WVc(2)","Air_Temp_Avg","Humidity_Avg","SW_upper_Wm2_Avg","Rain_Tot","Press_Avg","Issui_Tot","Depth_cm","SR50A_Raw","Quality","Ground_Temp_Avg(1)","Ground_Temp_Avg(2)","SW_lower_Wm2_Avg","Albedo_Avg","SWC_per(1)","SWC_per(2)","Period(1)","Period(2)"
"TS","RN","","","","","","","","","","","","","","","","","","",""
"","","WVc","WVc","Avg","Avg","Avg","Tot","Avg","Tot","Smp","Smp","Smp","Avg","Avg","Avg","Avg","Smp","Smp","Smp","Smp"
"2018-05-18 00:00:00",341053,0.218,155.5,15.84,100,0,0,864.1904,0,-2.854,3.119,187,14.22,12.73,0,0,49.79,57.27,33.24,35.05
"2018-05-18 00:10:00",341054,0.079,175.6,16.1,100,0,0,864.1208,0,-2.641,3.116,193,14.2,12.73,0.1061071,0,49.73,57.27,33.23,35.05
"2018-05-18 00:20:00",341055,0.081,177,15.96,100,0,0,864.1208,0,-3.265,3.123,192,14.23,12.74,0.03410587,0,49.79,57.27,33.24,35.05
"2018-05-18 00:30:00",341056,0.043,322,16.33,99.6,0,0,863.9313,0,-2.965,3.114,197,14.19,12.73,0.7692768,0,49.73,57.27,33.23,35.05
"2018-05-18 00:40:00",341057,0.042,143.8,16.98,90.8,0,0,863.8723,0,-3.434,3.123,182,14.15,12.73,1.023176,0,49.73,57.27,33.23,35.05
"2018-05-18 00:50:00",341058,0.197,197.5,15.99,100,0,0,863.8682,0,-2.944,3.118,189,14.15,12.73,0.1136862,0,49.79,57.27,33.24,35.05
"2018-05-18 01:00:00",341059,0.055,179,16.48,97.9,0,0,863.8555,0,-3.252,3.121,199,14.15,12.72,0.4964299,0,49.73,57.27,33.23,35.05
"2018-05-18 01:10:00",341060,0.117,179.1,16.28,100,0.153281,0,863.7438,0,-3.246,3.12,197,14.14,12.72,0.2614783,0.498,49.73,57.27,33.23,35.05
"2018-05-18 01:20:00",341061,0.145,165.4,16.4,99.9,0.2436776,0,863.6153,0,-3.465,3.124,196,14.14,12.72,0.2842156,0.795,49.73,57.22,33.23,35.03
"2018-05-18 01:30:00",341062,0.274,177.2,16.28,100,0.1061177,0,863.4574,0,-3.493,3.121,197,14.09,12.72,0.2197934,0.731,49.79,57.22,33.24,35.03
"2018-05-18 01:40:00",341063,0.008,173.5,17.58,84.4,1.823652,0,863.3816,0,-4.144,3.121,186,14.06,12.71,1.48929,0.847,49.73,57.22,33.23,35.03
"2018-05-18 01:50:00",341064,0.021,173.5,17.79,81.5,1.076898,0,863.3626,0,-3.183,3.111,190,14.06,12.7,0.9132794,0.848,49.73,57.22,33.23,35.03
"2018-05-18 02:00:00",341065,0.04,164,17.83,81.3,0.6131242,0,863.3016,0,-3.982,3.122,197,14.07,12.68,0.6139057,0.82,49.73,57.22,33.23,35.03
"2018-05-18 02:10:00",341066,0.35,128.1,17.45,84.6,0.0235817,0,863.1098,0,-3.604,3.116,192,14.1,12.68,0.2690574,0.37,49.73,57.22,33.23,35.03
"2018-05-18 02:20:00",341067,0.232,89.8,18.1,78.78,0.2318867,0,863.1098,0,-4.105,3.119,193,14.06,12.68,0.651801,1.744,49.73,57.22,33.23,35.03
"2018-05-18 02:30:00",341068,0.194,117.2,18.04,79.55,0,0,863.053,0,-4.429,3.124,185,14.03,12.68,0.1212653,0,49.79,57.22,33.24,35.03
"2018-05-18 02:40:00",341069,0.21,122.7,17.56,83.3,0,0,862.8655,0,-4.443,3.126,196,13.97,12.68,0,0,49.73,57.22,33.23,35.03
"2018-05-18 02:50:00",341070,0.205,119,17.49,83.6,0,0,862.8572,0,-4.601,3.128,200,13.97,12.67,0,0,49.73,57.22,33.23,35.03
"2018-05-18 03:00:00",341071,0.294,123.4,17.41,84.2,0,0,862.8529,0,-4.443,3.126,194,13.97,12.69,0.03410587,0,49.79,57.22,33.24,35.03
"2018-05-18 03:10:00",341072,0.184,125.1,17.4,84.4,0,0,862.7433,0,-4.498,3.127,196,13.98,12.68,0.007579082,0,49.79,57.22,33.24,35.03
"2018-05-18 03:20:00",341073,0.27,97,17.53,83.3,0,0,862.7897,0,-4.38,3.124,191,13.99,12.69,0.1288444,0,49.73,57.22,33.23,35.03
"2018-05-18 03:30:00",341074,0.191,131.7,17.22,86.1,0,0,862.7455,0,-3.59,3.121,194,13.96,12.7,0,0,49.73,57.22,33.23,35.03
"2018-05-18 03:40:00",341075,0.13,152.6,16.74,91.1,0,0,862.6317,0,-3.579,3.123,187,13.91,12.71,0,0,49.73,57.22,33.23,35.03
"2018-05-18 03:50:00",341076,0.071,107,16.67,92.2,0.02751198,0,862.6549,0,-3.535,3.12,197,13.89,12.72,0.1364235,0.225,49.73,57.16,33.23,35.02
"2018-05-18 04:00:00",341077,0.14,148.7,16.68,90.9,0.01572113,0,862.6402,0,-3.27,3.12,187,13.89,12.72,0.07579082,0.08,49.73,57.16,33.23,35.02
"2018-05-18 04:10:00",341078,0.276,113.5,16.98,88,0,0,862.6907,0,-1.872,3.102,214,13.89,12.72,0.553273,0,49.73,57.22,33.23,35.03
"2018-05-18 04:20:00",341079,0.32,102.2,17.57,81.8,0.1061177,0,862.8508,0,-2.579,3.107,202,13.89,12.71,0.8033827,1.719,49.73,57.16,33.23,35.02
"2018-05-18 04:30:00",341080,0.001,118.8,17.53,82.6,0,0,862.8572,0,-2.483,3.107,207,13.9,12.71,0.1364235,0,49.73,57.16,33.23,35.02
"2018-05-18 04:40:00",341081,0.025,147.7,17.17,86.1,0.07467539,0,862.8572,0,-2.917,3.114,201,13.93,12.71,0,0,49.73,57.16,33.23,35.02
"2018-05-18 04:50:00",341082,0.061,158.3,16.72,91,0.5974031,0,862.8572,0,2.641,3.061,390,13.87,12.71,0,0,49.73,57.16,33.23,35.02
"2018-05-18 05:00:00",341083,0.084,156.6,16.79,89.8,3.627652,0,862.8508,0,1.918,3.068,322,13.8,12.72,0.5153776,0.122,49.73,57.16,33.23,35.02
"2018-05-18 05:10:00",341084,0.245,132.6,17.18,86.5,6.764018,0,862.855,0,2.056,3.063,467,13.8,12.72,1.428657,0.211,49.73,57.16,33.23,35.02
"2018-05-18 05:20:00",341085,0.406,147.3,17.44,84.8,9.28726,0,862.8572,0,1.516,3.068,408,13.8,12.71,1.674977,0.18,49.73,57.16,33.23,35.02
"2018-05-18 05:30:00",341086,0.344,145.5,17.67,83.1,18.88894,0,862.8572,0,-0.515,3.087,260,13.8,12.71,3.327217,0.176,49.73,57.16,33.23,35.02
"2018-05-18 05:40:00",341087,0.405,139.1,17.72,83.2,41.21295,0,862.8613,0,-3.913,3.119,193,13.8,12.7,7.086442,0.172,49.73,57.16,33.23,35.02
"2018-05-18 05:50:00",341088,0.559,130.4,17.83,82.5,54.56805,0,862.8698,0,-4.35,3.123,187,13.8,12.68,9.284375,0.17,49.73,57.16,33.23,35.02
"2018-05-18 06:00:00",341089,0.437,142.9,17.87,82.1,63.11249,0,862.8613,0,-3.493,3.114,192,13.79,12.67,10.46671,0.166,49.73,57.16,33.23,35.02
"2018-05-18 06:10:00",341090,0.424,137.9,18.08,80.9,67.83669,0,862.8572,0,-1.992,3.099,216,13.76,12.67,11.0882,0.163,49.73,57.16,33.23,35.02
"2018-05-18 06:20:00",341091,0.1,96.9,18.2,81.1,77.27723,0,863.0088,0,-3.637,3.114,190,13.73,12.67,12.56991,0.163,49.73,57.16,33.23,35.02
"2018-05-18 06:30:00",341092,0.492,143,18.05,83.7,83.22375,0,862.8761,0,-1.825,3.099,224,13.72,12.67,13.2596,0.159,49.73,57.16,33.23,35.02
"2018-05-18 06:40:00",341093,0.54,134.4,17.65,87,130.9688,0,862.8572,0,0.104,3.081,302,13.72,12.67,21.89976,0.167,49.79,57.16,33.24,35.02
"2018-05-18 06:50:00",341094,0.467,142.4,17.71,87.2,161.3814,0,862.8529,0,-2.183,3.102,196,13.72,12.67,28.38366,0.175,49.73,57.16,33.23,35.02
"2018-05-18 07:00:00",341095,0.479,84.5,18.24,84.2,173.9465,0,862.8361,0,-2.311,3.1,198,13.74,12.67,29.72137,0.17,49.73,57.16,33.23,35.02
"2018-05-18 07:10:00",341096,0.396,116.7,18.73,80.4,190.6227,0,862.8572,0,-1.101,3.086,218,13.8,12.67,32.84774,0.172,49.73,57.16,33.23,35.02
"2018-05-18 07:20:00",341097,0.504,125.3,18.85,78.88,216.0202,0,862.7877,0,-0.561,3.081,227,13.8,12.67,36.55391,0.169,49.73,57.16,33.23,35.02
"2018-05-18 07:30:00",341098,0.456,127.5,18.86,78.79,218.905,0,862.6044,0,2.024,3.056,278,13.77,12.67,36.14464,0.165,49.73,57.1,33.23,35.01
"2018-05-18 07:40:00",341099,0.713,125,18.79,78.79,173.1722,0,862.6886,0,0.432,3.073,226,13.76,12.67,27.95165,0.16,49.73,57.1,33.23,35.01
"2018-05-18 07:50:00",341100,0.547,101.9,18.62,80.2,146.8708,0,862.8214,0,-2.016,3.096,193,13.76,12.67,23.44968,0.16,49.73,57.1,33.23,35.01
"2018-05-18 08:00:00",341101,0.759,113.7,18.71,79.35,209.0911,0,862.8572,0,-2.295,3.098,195,13.75,12.67,33.98082,0.163,49.73,57.1,33.23,35.01
"2018-05-18 08:10:00",341102,0.691,116.5,18.75,78.99,193.7119,0,862.8572,0,1.348,3.063,239,13.76,12.67,32.51047,0.165,49.73,57.1,33.23,35.01
"2018-05-18 08:20:00",341103,0.782,105.5,19,78.36,275.7958,0,862.8886,0,-3.265,3.106,190,13.85,12.67,46.17934,0.167,49.73,57.1,33.23,35.01
"2018-05-18 08:30:00",341104,0.684,117.8,18.94,78.21,204.2254,0,862.9987,0,-1.355,3.088,211,13.85,12.67,33.3707,0.163,49.73,57.1,33.23,35.01
"2018-05-18 08:40:00",341105,0.676,120.1,18.77,79.24,154.4483,0,862.9342,0,-2.485,3.101,191,13.85,12.67,24.73812,0.16,49.73,57.1,33.23,35.01
"2018-05-18 08:50:00",341106,0.548,115,18.61,80.5,139.3246,0,863.1055,0,-0.681,3.084,256,13.85,12.67,22.14608,0.158,49.73,57.1,33.23,35.01
"2018-05-18 09:00:00",341107,0.538,131.3,18.55,80.9,180.7026,0,863.0656,0,1.719,3.061,233,13.82,12.67,29.77821,0.165,49.73,57.1,33.23,35.01
"2018-05-18 09:10:00",341108,0.811,134.5,18.56,79.53,236.155,0,862.9934,0,2.222,3.055,239,13.94,12.67,39.46807,0.167,49.73,57.1,33.23,35.01
"2018-05-18 09:20:00",341109,0.523,138.5,18.79,77.9,232.602,0,862.8638,0,2.438,3.052,230,13.97,12.67,38.97922,0.167,49.73,57.1,33.23,35.01
"2018-05-18 09:30:00",341110,0.612,128.9,18.99,76.18,238.1319,0,862.8287,0,2.4,3.051,231,13.92,12.66,39.71818,0.167,49.73,57.1,33.23,35.01
"2018-05-18 09:40:00",341111,0.25,134.1,19.15,76.33,160.4971,0,862.8436,0,2.917,3.046,275,13.89,12.66,25.2914,0.157,49.73,57.1,33.23,35.01
"2018-05-18 09:50:00",341112,0.362,134.9,19.23,76.43,231.0692,0,862.7576,0,3.041,3.043,300,14.02,12.67,37.52782,0.162,49.73,57.1,33.23,35.01
"2018-05-18 10:00:00",341113,0.644,148.5,19.49,75.28,317.445,0,862.6221,0,2.556,3.047,277,14.04,12.67,52.41693,0.165,49.68,57.1,33.22,35.01
"2018-05-18 10:10:00",341114,0.616,137.4,19.32,75.83,192.7057,0,862.6005,0,1.7,3.058,301,13.98,12.67,30.33528,0.157,49.68,57.1,33.22,35.01
"2018-05-18 10:20:00",341115,0.785,114.6,19.34,76.64,286.777,0,862.594,0,2.947,3.043,315,13.98,12.67,47.45642,0.165,49.68,57.1,33.22,35.01
"2018-05-18 10:30:00",341116,0.287,125,19.67,76.2,252.9413,0,862.4846,0,2.326,3.049,238,14.06,12.67,41.57505,0.163,49.68,57.1,33.22,35.01
"2018-05-18 10:40:00",341117,0.299,357.1,19.6,77.15,279.3724,0,862.3416,0,3.314,3.039,300,14.09,12.67,44.74311,0.16,49.68,57.04,33.22,34.99
"2018-05-18 10:50:00",341118,0.491,30.83,19.67,76.87,256.2505,0,862.3441,0,2.292,3.05,229,14.06,12.67,39.9645,0.156,49.68,57.04,33.22,34.99
"2018-05-18 11:00:00",341119,0.276,338.6,19.46,77.9,184.2281,0,862.3427,0,2.076,3.053,224,14.05,12.67,27.29227,0.148,49.68,57.04,33.22,34.99
"2018-05-18 11:10:00",341120,0.259,26,19.28,79.31,191.5148,0,862.3375,0,1.803,3.057,204,14.18,12.67,28.9142,0.151,49.68,57.1,33.22,35.01
"2018-05-18 11:20:00",341121,0.487,44.21,19.44,78.48,318.4748,0,862.338,0,1.624,3.056,212,14.17,12.67,52.27672,0.163,49.68,57.1,33.22,35.01
"2018-05-18 11:30:00",341122,0.651,39.91,19.82,75.31,472.5105,0,862.3226,0,2.011,3.05,226,14.22,12.67,78.74667,0.164,49.68,57.1,33.22,35.01
"2018-05-18 11:40:00",341123,0.593,38.94,19.74,75.37,349.0131,0,862.2549,0,0.095,3.071,358,14.27,12.67,55.58499,0.159,49.68,57.1,33.22,35.01
"2018-05-18 11:50:00",341124,0.628,38.92,19.64,75.77,409.5198,0,862.0109,0,0.345,3.067,229,14.24,12.67,66.69971,0.162,49.62,57.1,33.2,35.01
"2018-05-18 12:00:00",341125,0.652,23.23,19.62,75.63,304.5066,0,861.8654,0,-0.304,3.076,242,14.22,12.66,47.05094,0.153,49.62,57.04,33.2,34.99
"2018-05-18 12:10:00",341126,0.485,17.66,19.31,76.42,368.5545,0,861.813,0,-1.156,3.084,203,14.34,12.67,60.14001,0.159,49.68,57.04,33.22,34.99
"2018-05-18 12:20:00",341127,0.507,31.35,19.3,76.54,201.0301,0,861.8288,0,-2.987,3.104,207,14.32,12.67,28.94073,0.143,49.68,57.04,33.22,34.99
"2018-05-18 12:30:00",341128,0.46,62.21,18.95,78.33,136.4162,0,861.7797,0,-2.811,3.103,200,14.33,12.67,18.43991,0.125,49.62,57.04,33.2,34.99
"2018-05-18 12:40:00",341129,0.56,76.88,18.49,80.4,78.41702,0,861.8308,0,0.391,3.075,244,14.43,12.67,9.447326,0.116,49.68,57.04,33.22,34.99
"2018-05-18 12:50:00",341130,0.539,94.9,18.27,81.6,115.346,0,861.8359,0,1.354,3.065,229,14.45,12.67,17.30304,0.148,49.62,57.04,33.2,34.99
"2018-05-18 13:00:00",341131,0.624,131.1,18.4,81,179.2249,0,861.8234,0,2.18,3.057,237,14.45,12.67,28.62619,0.159,49.62,57.04,33.2,34.99
"2018-05-18 13:10:00",341132,0.644,131.7,18.34,80.1,159.6678,0,861.8018,0,1.974,3.059,240,14.56,12.67,25.02992,0.156,49.62,57.04,33.2,34.99
"2018-05-18 13:20:00",341133,0.598,67.1,18.22,80.4,81.68308,0,861.765,0,2.035,3.06,309,14.54,12.67,11.33831,0.138,49.62,57.04,33.2,34.99
"2018-05-18 13:30:00",341134,0.443,33.04,18.02,81.6,96.57493,0,861.7069,0,1.153,3.069,236,14.53,12.67,13.78256,0.141,49.62,57.04,33.2,34.99
"2018-05-18 13:40:00",341135,0.637,45.22,17.92,81.7,91.34372,0,861.7281,0,2.153,3.06,236,14.52,12.67,13.34676,0.145,49.57,57.04,33.19,34.99
"2018-05-18 13:50:00",341136,0.473,58.51,17.84,83.3,109.2186,0,861.6017,0,1.89,3.063,233,14.65,12.67,16.83693,0.153,49.57,57.04,33.19,34.99
"2018-05-18 14:00:00",341137,0.577,122.7,17.78,83.6,77.45016,0,861.5955,0,1.478,3.067,244,14.67,12.67,11.16399,0.142,49.57,57.04,33.19,34.99
"2018-05-18 14:10:00",341138,0.617,81.1,17.69,83.7,74.7422,0,861.5934,0,2.224,3.06,259,14.67,12.67,11.00862,0.145,49.57,57.04,33.19,34.99
"2018-05-18 14:20:00",341139,0.4,105,17.63,84,58.08959,0,861.547,0,2.834,3.055,290,14.67,12.67,8.086881,0.138,49.57,56.98,33.19,34.98
"2018-05-18 14:30:00",341140,0.397,102.9,17.69,83.9,102.5804,0,861.3533,0,2.946,3.053,285,14.65,12.67,15.96155,0.155,49.57,57.04,33.19,34.99
"2018-05-18 14:40:00",341141,0.494,115.9,17.77,83.3,98.02914,0,861.3407,0,2.43,3.058,234,14.62,12.7,14.69963,0.149,49.57,57.04,33.19,34.99
"2018-05-18 14:50:00",341142,0.485,111.2,17.72,84.3,58.31755,0,861.3407,0,2.477,3.058,236,14.65,12.73,8.052774,0.137,49.57,57.04,33.19,34.99
"2018-05-18 15:00:00",341143,0.553,123.7,17.54,85.8,63.34438,0,861.2606,0,2.881,3.055,241,14.67,12.74,8.905421,0.14,49.51,57.04,33.18,34.99
"2018-05-18 15:10:00",341144,0.336,105.2,17.58,86.3,53.44793,0,861.092,0,2.81,3.055,243,14.72,12.73,7.84056,0.144,49.57,57.04,33.19,34.99
"2018-05-18 15:20:00",341145,0.27,79.07,17.57,90.1,41.26012,0,861.0879,0,3.134,3.053,256,14.74,12.7,6.294427,0.153,49.51,57.04,33.18,34.99
"2018-05-18 15:30:00",341146,0.222,38.19,17.33,98.4,26.97354,0,861.071,0,3.125,3.054,266,14.75,12.71,4.562607,0.171,49.57,56.98,33.19,34.98
"2018-05-18 15:40:00",341147,0.234,93.6,17.19,100,65.34489,0,860.9699,0,3.181,3.053,329,14.75,12.69,10.58419,0.162,49.51,56.98,33.18,34.98
"2018-05-18 15:50:00",341148,0.486,53.29,17.32,99.5,49.0971,0,861.0541,0,3.387,3.051,309,14.75,12.73,8.109617,0.166,49.51,56.98,33.18,34.98
"2018-05-18 16:00:00",341149,0.349,47.33,17.33,97.2,63.74134,0,861.0141,0,3.078,3.054,275,14.76,12.75,10.25829,0.161,49.51,56.98,33.18,34.98
"2018-05-18 16:10:00",341150,0.181,53.1,17.36,96.5,59.4534,0,860.9363,0,2.722,3.057,251,14.76,12.76,9.40943,0.158,49.51,56.98,33.18,34.98
"2018-05-18 16:20:00",341151,0.291,51.47,17.37,97.3,52.37495,0,860.8351,0,1.644,3.067,251,14.76,12.76,7.878456,0.148,49.51,56.98,33.18,34.98
"2018-05-18 16:30:00",341152,0.631,119.4,17.3,97.8,76.80167,0,860.6793,0,1.072,3.073,232,14.75,12.76,12.44485,0.159,49.51,56.98,33.18,34.98
"2018-05-18 16:40:00",341153,0.746,131.8,17.33,95.5,127.8482,0,860.3676,0,-0.682,3.09,200,14.76,12.77,20.99784,0.164,49.51,56.98,33.18,34.98
"2018-05-18 16:50:00",341154,0.811,113.8,17.43,90.1,75.27672,0,860.4918,0,-1.555,3.098,198,14.76,12.81,11.78547,0.155,49.51,56.98,33.18,34.98
"2018-05-18 17:00:00",341155,0.425,102.7,17.41,89.8,18.90073,0,860.6603,0,-1.919,3.102,189,14.75,12.83,2.23204,0.11,49.51,56.98,33.18,34.98
"2018-05-18 17:10:00",341156,0.434,116.7,17.28,91.2,9.413029,0,860.7383,0,-2.03,3.104,192,14.75,12.83,1.026966,0.091,49.51,56.98,33.18,34.98
"2018-05-18 17:20:00",341157,0.795,138.1,17.09,94.7,47.17519,0,860.3633,0,-2.037,3.105,188,14.75,12.82,7.397184,0.156,49.46,56.98,33.16,34.98
"2018-05-18 17:30:00",341158,0.739,135.6,17.1,93.7,53.44399,0,860.3297,0,-1.982,3.104,198,14.73,12.79,8.761418,0.164,49.51,56.98,33.18,34.98
"2018-05-18 17:40:00",341159,0.618,120.4,17.13,89.9,28.88365,0,860.3697,0,-2.133,3.105,186,14.74,12.77,4.483027,0.151,49.46,56.93,33.16,34.97
"2018-05-18 17:50:00",341160,0.843,117.9,17.13,88.6,7.573656,0,860.4771,0,1.364,3.072,250,14.74,12.77,0.9701225,0.128,49.51,56.98,33.18,34.98
"2018-05-18 18:00:00",341161,0.968,147.1,17.02,89.7,17.94567,0,860.1338,0,2.545,3.061,248,14.71,12.8,2.898999,0.16,49.46,56.98,33.16,34.98
"2018-05-18 18:10:00",341162,0.615,130.5,16.99,89.9,12.15637,0,860.119,0,2.648,3.06,242,14.68,12.83,1.940245,0.158,49.46,56.93,33.16,34.97
"2018-05-18 18:20:00",341163,0.861,132.9,17.02,90.3,4.869621,0,860.2707,0,2.808,3.058,256,14.67,12.84,0.7541187,0.157,49.46,56.93,33.16,34.97
"2018-05-18 18:30:00",341164,0.866,132.7,16.93,91.4,5.899355,0,859.9758,0,2.695,3.06,240,14.67,12.85,0.9360166,0.154,49.46,56.93,33.16,34.97
"2018-05-18 18:40:00",341165,0.764,119.4,16.84,94.9,1.764697,0,859.8663,0,2.949,3.058,238,14.67,12.85,0.1667398,0.088,49.46,56.93,33.16,34.97
"2018-05-18 18:50:00",341166,0.701,123.4,16.78,96.1,0.6642179,0,859.8263,0,2.101,3.066,241,14.67,12.85,0.07579082,0.062,49.46,56.93,33.16,34.97
"2018-05-18 19:00:00",341167,0.834,86.7,16.71,99.4,0,0,859.9442,0,2.252,3.065,236,14.67,12.85,0,0,49.46,56.93,33.16,34.97
"2018-05-18 19:10:00",341168,1.126,94.7,16.67,100,0,0,860.0137,0,2.631,3.062,231,14.67,12.86,0,0,49.46,56.93,33.16,34.97
"2018-05-18 19:20:00",341169,1.043,112.4,16.66,100,0,0,859.9,0,2.402,3.064,241,14.67,12.9,0,0,49.51,56.93,33.18,34.97
"2018-05-18 19:30:00",341170,0.677,106.3,16.61,100,0,0,859.9948,0,2.678,3.062,237,14.63,12.93,0,0,49.46,56.93,33.16,34.97
"2018-05-18 19:40:00",341171,0.67,124.6,16.65,99.9,0,0,860.0516,0,2.847,3.059,229,14.65,12.93,0.05684311,0,49.46,56.93,33.16,34.97
"2018-05-18 19:50:00",341172,0.855,128,16.68,99.9,0,0,859.9021,0,2.687,3.061,206,14.61,12.93,0.02273725,0,49.46,56.93,33.16,34.97
"2018-05-18 20:00:00",341173,0.587,109.7,16.69,99.9,0,0,859.8789,0,2.734,3.061,213,14.58,12.93,0,0,49.46,56.93,33.16,34.97
"2018-05-18 20:10:00",341174,0.812,109.6,16.62,100,0,0,859.8726,0,2.734,3.061,205,14.58,12.93,0,0,49.46,56.87,33.16,34.95
"2018-05-18 20:20:00",341175,0.77,133.8,16.62,100,0,0,859.8242,0,2.94,3.059,227,14.58,12.92,0,0,49.46,56.87,33.16,34.95
"2018-05-18 20:30:00",341176,1.01,150.7,16.66,99.5,0,0,859.4766,0,2.847,3.059,225,14.58,12.92,0,0,49.46,56.87,33.16,34.95
"2018-05-18 20:40:00",341177,0.819,124.4,16.72,94.5,0,0,859.683,0,2.561,3.062,213,14.58,12.94,0.04168495,0,49.46,56.87,33.16,34.95
"2018-05-18 20:50:00",341178,0.42,110.8,16.76,93.8,0,0,859.9969,0,2.893,3.059,227,14.57,12.94,0.003789541,0,49.46,56.87,33.16,34.95
"2018-05-18 21:00:00",341179,0.662,109.8,16.73,96.3,0,0,859.8916,0,3.043,3.058,345,14.58,12.95,0,0,49.46,56.87,33.16,34.95
"2018-05-18 21:10:00",341180,0.709,102.9,16.67,99.3,0,0,859.8389,0,2.473,3.064,214,14.53,12.94,0.007579082,0,49.46,56.87,33.16,34.95
"2018-05-18 21:20:00",341181,0.854,121.9,16.51,100,0,0,859.7757,0,2.473,3.064,220,14.5,12.94,0,0,49.46,56.87,33.16,34.95
"2018-05-18 21:30:00",341182,0.73,99.2,16.47,100,0,0,859.6535,0,2.623,3.063,235,14.5,12.94,0,0,49.46,56.87,33.16,34.95
"2018-05-18 21:40:00",341183,0.618,71.16,16.41,100,0,0,859.6852,0,2.67,3.063,236,14.5,12.94,0.1743189,0,49.46,56.87,33.16,34.95
"2018-05-18 21:50:00",341184,0.657,106.3,16.34,100,0,0,859.5714,0,2.544,3.064,230,14.44,12.94,0.3031633,0,49.46,56.87,33.16,34.95
"2018-05-18 22:00:00",341185,0.764,85.8,16.35,100,0,0,859.5482,0,2.464,3.065,245,14.42,12.94,0.4471658,0,49.46,56.87,33.16,34.95
"2018-05-18 22:10:00",341186,0.805,103.4,16.4,100,0,0,859.5524,0,2.726,3.062,234,14.46,12.93,0.5153776,0,49.41,56.87,33.15,34.95
"2018-05-18 22:20:00",341187,0.55,74.15,16.29,100,0,0,859.2513,0,2.709,3.064,230,14.45,12.93,0.3637959,0,49.46,56.87,33.16,34.95
"2018-05-18 22:30:00",341188,0.491,93.7,16.06,100,0,0.5,859.0638,0,3.01,3.062,291,14.41,12.93,0.3827437,0,49.46,56.87,33.16,34.95
"2018-05-18 22:40:00",341189,0.734,129.8,15.85,100,0,0.5,858.9248,0,1.594,3.076,268,14.41,12.93,0.2235829,0,49.46,56.87,33.16,34.95
"2018-05-18 22:50:00",341190,0.773,98.4,15.9,100,0,0,858.8806,0,3.122,3.06,470,14.41,12.93,0.3637959,0,49.46,56.81,33.16,34.94
"2018-05-18 23:00:00",341191,0.712,85.8,16.01,100,0,0.5,859.028,0,3.112,3.061,374,14.41,12.93,0.371375,0,49.46,56.81,33.16,34.94
"2018-05-18 23:10:00",341192,0.523,44.82,15.94,100,0,0.5,859.0659,0,2.29,3.069,336,14.41,12.93,0.2273725,0,49.41,56.81,33.15,34.94
"2018-05-18 23:20:00",341193,0.403,54.96,15.88,100,0,0,859.0406,0,0.074,3.091,215,14.4,12.93,0.2235829,0,49.46,56.81,33.16,34.94
"2018-05-18 23:30:00",341194,0.464,114.3,15.97,100,0,0,858.9122,0,1.317,3.078,284,14.41,12.93,0.2387411,0,49.51,56.81,33.18,34.94
"2018-05-18 23:40:00",341195,0.916,102.7,15.86,100,0,0.5,858.8216,0,1,3.082,339,14.37,12.93,0.2463202,0,49.46,56.81,33.16,34.94
"2018-05-18 23:50:00",341196,0.796,90.1,15.71,100,0,0,858.809,0,-1.53,3.108,243,14.32,12.93,0.2273725,0,49.51,56.81,33.18,34.94
